| time (UTC) | temp C | wind direction | speed KPH | gust KPH | rain 1hr cm | rain 24hr cm | rain mn cm | humidity % | barometer mb |
| 20260506184444 | 17 | 226 | 1.6 | 3.2 | 0.00 | 0.00 | 0.00 | 50 | 1004.1 |
| 20260506183744 | 17 | 228 | 3.2 | 3.2 | 0.00 | 0.00 | 0.00 | 44 | 1004.1 |
| 20260506183044 | 18 | 205 | 3.2 | 3.2 | 0.00 | 0.00 | 0.00 | 43 | 1004.0 |
| 20260506182344 | 18 | 182 | 3.2 | 4.8 | 0.00 | 0.00 | 0.00 | 42 | 1004.0 |
| 20260506181645 | 18 | 213 | 4.8 | 6.4 | 0.00 | 0.00 | 0.00 | 41 | 1003.9 |
| 20260506180944 | 19 | 191 | 3.2 | 6.4 | 0.00 | 0.00 | 0.00 | 40 | 1003.7 |
| 20260506180245 | 20 | 196 | 3.2 | 4.8 | 0.00 | 0.00 | 0.00 | 40 | 1003.5 |
| 20260506175545 | 20 | 208 | 4.8 | 4.8 | 0.00 | 0.00 | 0.00 | 39 | 1003.5 |
| 20260506174845 | 21 | 194 | 4.8 | 6.4 | 0.00 | 0.03 | 0.00 | 40 | 1003.4 |
| 20260506174145 | 21 | 195 | 4.8 | 4.8 | 0.00 | 0.03 | 0.00 | 40 | 1003.4 |
| 20260506173445 | 21 | 183 | 4.8 | 6.4 | 0.00 | 0.05 | 0.00 | 40 | 1003.4 |
| 20260506172745 | 22 | 166 | 4.8 | 6.4 | 0.00 | 0.05 | 0.00 | 40 | 1003.3 |
| 20260506170645 | 22 | 202 | 4.8 | 6.4 | 0.00 | 0.05 | 0.00 | 34 | 1002.9 |
| 20260506165945 | 22 | 240 | 4.8 | 6.4 | 0.00 | 0.05 | 0.00 | 35 | 1003.1 |
| 20260506164545 | 22 | 183 | 6.4 | 8.0 | 0.00 | 0.05 | 0.00 | 36 | 1002.9 |
| 20260506163845 | 23 | 176 | 6.4 | 8.0 | 0.00 | 0.05 | 0.00 | 35 | 1002.9 |
| 20260506163145 | 23 | 161 | 6.4 | 8.0 | 0.00 | 0.05 | 0.00 | 36 | 1002.8 |
| 20260506162445 | 23 | 188 | 6.4 | 8.0 | 0.00 | 0.05 | 0.00 | 35 | 1002.8 |
| 20260506161745 | 23 | 190 | 6.4 | 8.0 | 0.00 | 0.05 | 0.00 | 34 | 1002.8 |
| 20260506161045 | 23 | 195 | 6.4 | 6.4 | 0.00 | 0.05 | 0.00 | 32 | 1002.7 |
| 20260506160345 | 24 | 229 | 6.4 | 8.0 | 0.00 | 0.05 | 0.00 | 31 | 1002.7 |
| 20260506154945 | 23 | 179 | 6.4 | 9.7 | 0.00 | 0.05 | 0.00 | 34 | 1002.5 |
| 20260506152846 | 23 | 193 | 6.4 | 8.0 | 0.00 | 0.05 | 0.00 | 32 | 1002.6 |
| 20260506152145 | 23 | 187 | 6.4 | 11.3 | 0.00 | 0.05 | 0.00 | 34 | 1002.5 |
| 20260506150745 | 22 | 245 | 4.8 | 9.7 | 0.00 | 0.05 | 0.00 | 41 | 1002.6 |
| 20260506150045 | 21 | 220 | 8.0 | 12.9 | 0.00 | 0.05 | 0.00 | 40 | 1002.7 |
| 20260506145345 | 21 | 206 | 8.0 | 12.9 | 0.00 | 0.05 | 0.00 | 40 | 1002.7 |
| 20260506144645 | 21 | 208 | 8.0 | 12.9 | 0.00 | 0.05 | 0.00 | 40 | 1002.6 |
| 20260506143945 | 21 | 237 | 6.4 | 12.9 | 0.00 | 0.05 | 0.00 | 41 | 1002.9 |
| 20260506143245 | 19 | 242 | 8.0 | 12.9 | 0.00 | 0.05 | 0.00 | 43 | 1002.8 |
| 20260506141846 | 19 | 248 | 6.4 | 17.7 | 0.00 | 0.05 | 0.00 | 42 | 1002.9 |
| 20260506141146 | 20 | 258 | 4.8 | 6.4 | 0.00 | 0.05 | 0.00 | 41 | 1003.0 |
| 20260506140446 | 20 | 232 | 4.8 | 6.4 | 0.00 | 0.05 | 0.00 | 40 | 1003.0 |
| 20260506135746 | 20 | 224 | 6.4 | 11.3 | 0.00 | 0.05 | 0.00 | 40 | 1003.1 |
| 20260506135046 | 21 | 224 | 4.8 | 6.4 | 0.00 | 0.05 | 0.00 | 37 | 1003.1 |
| 20260506134346 | 21 | 197 | 6.4 | 9.7 | 0.00 | 0.05 | 0.00 | 36 | 1003.2 |
| 20260506133645 | 22 | 216 | 4.8 | 9.7 | 0.00 | 0.05 | 0.00 | 36 | 1003.2 |
| 20260506132946 | 21 | 219 | 3.2 | 4.8 | 0.00 | 0.05 | 0.00 | 41 | 1003.2 |
| 20260506132246 | 20 | 219 | 1.6 | 4.8 | 0.00 | 0.05 | 0.00 | 40 | 1003.3 |
| 20260506131546 | 20 | 238 | 1.6 | 4.8 | 0.00 | 0.05 | 0.00 | 40 | 1003.4 |
| 20260506130846 | 20 | 228 | 4.8 | 6.4 | 0.00 | 0.05 | 0.00 | 41 | 1003.4 |
| 20260506130146 | 19 | 226 | 4.8 | 6.4 | 0.00 | 0.05 | 0.00 | 41 | 1003.5 |
| 20260506124746 | 19 | 249 | 8.0 | 11.3 | 0.00 | 0.05 | 0.00 | 40 | 1003.5 |
| 20260506124046 | 20 | 222 | 6.4 | 11.3 | 0.00 | 0.05 | 0.00 | 37 | 1003.4 |
| 20260506123346 | 21 | 184 | 4.8 | 8.0 | 0.00 | 0.05 | 0.00 | 36 | 1003.4 |
| 20260506122646 | 21 | 185 | 8.0 | 12.9 | 0.00 | 0.05 | 0.00 | 37 | 1003.4 |
| 20260506121946 | 21 | 208 | 6.4 | 11.3 | 0.00 | 0.05 | 0.00 | 37 | 1003.4 |
| 20260506121246 | 21 | 202 | 4.8 | 8.0 | 0.00 | 0.05 | 0.00 | 39 | 1003.5 |
| 20260506120546 | 21 | 211 | 4.8 | 8.0 | 0.00 | 0.05 | 0.00 | 40 | 1003.5 |
| 20260506115846 | 21 | 193 | 6.4 | 9.7 | 0.00 | 0.05 | 0.00 | 38 | 1003.5 |
| 20260506115146 | 21 | 197 | 8.0 | 12.9 | 0.00 | 0.05 | 0.00 | 38 | 1003.4 |
| 20260506113746 | 21 | 175 | 8.0 | 9.7 | 0.00 | 0.05 | 0.00 | 36 | 1003.4 |
| 20260506113046 | 21 | 184 | 6.4 | 8.0 | 0.00 | 0.05 | 0.00 | 40 | 1003.5 |
| 20260506112346 | 21 | 188 | 6.4 | 11.3 | 0.00 | 0.05 | 0.00 | 37 | 1003.4 |
| 20260506111647 | 21 | 204 | 4.8 | 6.4 | 0.00 | 0.05 | 0.00 | 40 | 1003.5 |
| 20260506110946 | 21 | 196 | 4.8 | 8.0 | 0.00 | 0.05 | 0.00 | 40 | 1003.3 |
| 20260506104846 | 20 | 245 | 4.8 | 6.4 | 0.00 | 0.05 | 0.00 | 40 | 1003.5 |
| 20260506104146 | 20 | 241 | 4.8 | 6.4 | 0.00 | 0.05 | 0.00 | 40 | 1003.5 |
| 20260506103446 | 20 | 203 | 3.2 | 6.4 | 0.00 | 0.05 | 0.00 | 38 | 1003.6 |
| 20260506102746 | 20 | 325 | 3.2 | 9.7 | 0.00 | 0.05 | 0.00 | 39 | 1003.6 |
| 20260506102046 | 18 | 284 | 4.8 | 9.7 | 0.00 | 0.05 | 0.00 | 37 | 1003.7 |
| 20260506101346 | 19 | 205 | 4.8 | 9.7 | 0.00 | 0.05 | 0.00 | 38 | 1003.7 |
| 20260506100646 | 19 | 218 | 3.2 | 6.4 | 0.00 | 0.05 | 0.00 | 38 | 1003.7 |
| 20260506095947 | 18 | 197 | 6.4 | 8.0 | 0.00 | 0.05 | 0.00 | 39 | 1003.8 |
| 20260506095247 | 19 | 213 | 4.8 | 8.0 | 0.00 | 0.05 | 0.00 | 40 | 1003.9 |
| 20260506094546 | 18 | 244 | 3.2 | 6.4 | 0.00 | 0.05 | 0.00 | 41 | 1003.9 |
| 20260506093846 | 18 | 247 | 1.6 | 4.8 | 0.00 | 0.05 | 0.00 | 41 | 1003.9 |
| 20260506093147 | 17 | 227 | 4.8 | 6.4 | 0.00 | 0.05 | 0.00 | 43 | 1004.0 |
| 20260506092447 | 17 | 211 | 4.8 | 8.0 | 0.00 | 0.05 | 0.00 | 46 | 1003.9 |
| 20260506091747 | 17 | 210 | 4.8 | 8.0 | 0.00 | 0.05 | 0.00 | 47 | 1003.9 |
| 20260506091047 | 17 | 194 | 4.8 | 6.4 | 0.00 | 0.05 | 0.00 | 49 | 1003.8 |
| 20260506090347 | 17 | 191 | 4.8 | 8.0 | 0.00 | 0.05 | 0.00 | 47 | 1003.9 |
| 20260506085647 | 17 | 242 | 4.8 | 9.7 | 0.00 | 0.05 | 0.00 | 48 | 1003.8 |
| 20260506084947 | 16 | 350 | 4.8 | 11.3 | 0.00 | 0.05 | 0.00 | 47 | 1003.9 |
| 20260506084247 | 17 | 229 | 3.2 | 8.0 | 0.00 | 0.05 | 0.00 | 49 | 1003.8 |
| 20260506083547 | 16 | 305 | 3.2 | 8.0 | 0.00 | 0.05 | 0.00 | 47 | 1003.6 |
| 20260506082847 | 16 | 250 | 3.2 | 6.4 | 0.00 | 0.05 | 0.00 | 50 | 1003.6 |
| 20260506082148 | 16 | 241 | 4.8 | 6.4 | 0.00 | 0.05 | 0.00 | 50 | 1003.6 |
| 20260506081447 | 15 | 330 | 4.8 | 9.7 | 0.00 | 0.05 | 0.00 | 50 | 1003.5 |
| 20260506080747 | 15 | 314 | 3.2 | 6.4 | 0.00 | 0.05 | 0.00 | 51 | 1003.6 |
| 20260506072548 | 13 | 200 | 6.4 | 11.3 | 0.00 | 0.05 | 0.00 | 54 | 1003.1 |
| 20260506071848 | 13 | 214 | 8.0 | 11.3 | 0.00 | 0.05 | 0.00 | 55 | 1003.1 |
| 20260506071148 | 13 | 195 | 9.7 | 14.5 | 0.00 | 0.05 | 0.00 | 55 | 1003.2 |
| 20260506070447 | 12 | 190 | 12.9 | 14.5 | 0.00 | 0.05 | 0.00 | 56 | 1003.1 |
| 20260506062247 | 12 | 196 | 4.8 | 9.7 | 0.00 | 0.05 | 0.00 | 65 | 1002.8 |
| 20260506061547 | 11 | 196 | 3.2 | 4.8 | 0.00 | 0.05 | 0.00 | 68 | 1002.9 |
| 20260506060147 | 11 | 287 | 0.0 | 3.2 | 0.00 | 0.05 | 0.00 | 70 | 1002.9 |
| 20260506051248 | 10 | 0 | 0.0 | 0.0 | 0.00 | 0.05 | 0.00 | 70 | 1002.6 |
| 20260506050548 | 11 | 0 | 0.0 | 0.0 | 0.00 | 0.05 | 0.00 | 69 | 1002.6 |
| 20260506044448 | 11 | 0 | 0.0 | 0.0 | 0.00 | 0.05 | 0.00 | 70 | 1002.4 |
| 20260506043748 | 10 | 0 | 0.0 | 0.0 | 0.00 | 0.05 | 0.00 | 70 | 1002.3 |
| 20260506043048 | 10 | 0 | 0.0 | 0.0 | 0.00 | 0.05 | 0.00 | 70 | 1002.3 |
| 20260506042348 | 10 | 0 | 0.0 | 0.0 | 0.00 | 0.05 | 0.00 | 70 | 1002.3 |
| 20260506041648 | 10 | 0 | 0.0 | 0.0 | 0.00 | 0.05 | 0.00 | 70 | 1002.4 |
| 20260506040948 | 10 | 0 | 0.0 | 0.0 | 0.00 | 0.05 | 0.00 | 70 | 1002.3 |
| 20260506040249 | 10 | 0 | 0.0 | 0.0 | 0.00 | 0.05 | 0.00 | 69 | 1002.4 |
| 20260506034848 | 11 | 0 | 0.0 | 0.0 | 0.00 | 0.05 | 0.00 | 67 | 1002.4 |
| 20260506034149 | 11 | 0 | 0.0 | 0.0 | 0.00 | 0.05 | 0.00 | 67 | 1002.3 |
| 20260506033448 | 11 | 349 | 1.6 | 6.4 | 0.00 | 0.05 | 0.00 | 67 | 1002.4 |
| 20260506032748 | 11 | 317 | 1.6 | 6.4 | 0.00 | 0.05 | 0.00 | 67 | 1002.2 |
| 20260506032048 | 11 | 328 | 3.2 | 4.8 | 0.00 | 0.05 | 0.00 | 68 | 1002.3 |
| 20260506030648 | 11 | 340 | 1.6 | 4.8 | 0.00 | 0.05 | 0.00 | 67 | 1002.3 |
| 20260506025248 | 11 | 326 | 0.0 | 3.2 | 0.00 | 0.05 | 0.00 | 70 | 1002.3 |
| 20260506024548 | 11 | 0 | 0.0 | 0.0 | 0.00 | 0.05 | 0.00 | 70 | 1002.3 |
| 20260506023848 | 11 | 0 | 0.0 | 0.0 | 0.00 | 0.05 | 0.00 | 70 | 1002.4 |
| 20260506023148 | 11 | 0 | 0.0 | 0.0 | 0.00 | 0.05 | 0.00 | 69 | 1002.3 |
| 20260506022449 | 11 | 332 | 1.6 | 4.8 | 0.00 | 0.05 | 0.00 | 68 | 1002.3 |
| 20260506021748 | 11 | 1 | 0.0 | 4.8 | 0.00 | 0.05 | 0.00 | 67 | 1002.4 |
| 20260506021049 | 11 | 0 | 0.0 | 0.0 | 0.00 | 0.05 | 0.00 | 67 | 1002.4 |
| 20260506020348 | 12 | 0 | 0.0 | 0.0 | 0.00 | 0.05 | 0.00 | 65 | 1002.3 |
| 20260506015649 | 12 | 295 | 0.0 | 1.6 | 0.00 | 0.05 | 0.00 | 65 | 1002.2 |
| 20260506014948 | 12 | 0 | 0.0 | 0.0 | 0.00 | 0.05 | 0.00 | 65 | 1002.2 |
| 20260506014248 | 12 | 295 | 0.0 | 3.2 | 0.00 | 0.05 | 0.00 | 65 | 1002.0 |
| 20260506013549 | 12 | 285 | 0.0 | 3.2 | 0.00 | 0.05 | 0.00 | 65 | 1002.1 |
| 20260506012848 | 12 | 270 | 0.0 | 3.2 | 0.00 | 0.05 | 0.00 | 64 | 1002.2 |
| 20260506012148 | 12 | 0 | 0.0 | 0.0 | 0.00 | 0.05 | 0.00 | 61 | 1002.2 |
| 20260506011448 | 12 | 278 | 1.6 | 3.2 | 0.00 | 0.05 | 0.00 | 61 | 1002.2 |
| 20260506010749 | 12 | 285 | 1.6 | 3.2 | 0.00 | 0.05 | 0.00 | 62 | 1002.2 |
| 20260506010049 | 12 | 307 | 0.0 | 3.2 | 0.00 | 0.05 | 0.00 | 63 | 1002.3 |
| 20260506005349 | 12 | 0 | 0.0 | 0.0 | 0.00 | 0.05 | 0.00 | 63 | 1002.3 |
| 20260506004649 | 12 | 0 | 0.0 | 0.0 | 0.00 | 0.05 | 0.00 | 63 | 1002.2 |
| 20260506003949 | 12 | 302 | 1.6 | 3.2 | 0.00 | 0.05 | 0.00 | 63 | 1002.5 |
| 20260506003249 | 12 | 314 | 0.0 | 3.2 | 0.00 | 0.05 | 0.00 | 64 | 1002.5 |
| 20260506002549 | 12 | 314 | 0.0 | 3.2 | 0.00 | 0.05 | 0.00 | 64 | 1002.5 |
| 20260506001149 | 13 | 341 | 1.6 | 3.2 | 0.00 | 0.05 | 0.00 | 64 | 1002.6 |
| 20260506000449 | 13 | 314 | 0.0 | 3.2 | 0.00 | 0.05 | 0.00 | 66 | 1002.5 |
| 20260505235749 | 13 | 12 | 1.6 | 4.8 | 0.00 | 0.05 | 0.00 | 67 | 1002.5 |
| 20260505234349 | 13 | 294 | 0.0 | 3.2 | 0.00 | 0.05 | 0.00 | 70 | 1002.8 |
| 20260505233649 | 13 | 271 | 3.2 | 11.3 | 0.00 | 0.05 | 0.00 | 71 | 1002.6 |
| 20260505232949 | 13 | 349 | 3.2 | 11.3 | 0.00 | 0.05 | 0.00 | 72 | 1002.5 |
| 20260505232249 | 12 | 257 | 0.0 | 1.6 | 0.00 | 0.05 | 0.00 | 73 | 1002.5 |
| 20260505231549 | 12 | 270 | 0.0 | 1.6 | 0.00 | 0.05 | 0.00 | 73 | 1002.6 |
| 20260505230849 | 13 | 305 | 0.0 | 1.6 | 0.00 | 0.05 | 0.00 | 73 | 1002.5 |
| 20260505225449 | 13 | 338 | 1.6 | 12.9 | 0.00 | 0.05 | 0.00 | 73 | 1002.2 |
| 20260505224049 | 13 | 220 | 3.2 | 9.7 | 0.00 | 0.05 | 0.00 | 75 | 1002.7 |
| 20260505223349 | 13 | 352 | 3.2 | 14.5 | 0.00 | 0.05 | 0.00 | 75 | 1002.9 |
| 20260505222650 | 13 | 178 | 4.8 | 14.5 | 0.00 | 0.05 | 0.00 | 75 | 1003.1 |
| 20260505221949 | 13 | 206 | 1.6 | 3.2 | 0.00 | 0.05 | 0.00 | 74 | 1003.1 |
| 20260505220550 | 14 | 344 | 3.2 | 8.0 | 0.00 | 0.05 | 0.00 | 74 | 1003.2 |
| 20260505215849 | 14 | 244 | 4.8 | 8.0 | 0.00 | 0.05 | 0.05 | 74 | 1003.3 |
| 20260505215149 | 14 | 240 | 4.8 | 9.7 | 0.00 | 0.05 | 0.05 | 75 | 1003.3 |
| 20260505214449 | 14 | 266 | 4.8 | 14.5 | 0.00 | 0.05 | 0.05 | 76 | 1003.4 |
| 20260505213750 | 13 | 234 | 3.2 | 6.4 | 0.00 | 0.05 | 0.05 | 75 | 1003.3 |
| 20260505212349 | 13 | 268 | 1.6 | 6.4 | 0.00 | 0.05 | 0.05 | 73 | 1003.4 |
| 20260505210950 | 13 | 243 | 3.2 | 6.4 | 0.00 | 0.05 | 0.05 | 73 | 1003.2 |
| 20260505210249 | 13 | 295 | 1.6 | 6.4 | 0.00 | 0.05 | 0.05 | 74 | 1003.1 |
| 20260505204850 | 13 | 241 | 0.0 | 3.2 | 0.00 | 0.05 | 0.05 | 76 | 1003.0 |
| 20260505204150 | 13 | 0 | 0.0 | 0.0 | 0.00 | 0.05 | 0.05 | 76 | 1003.1 |
| 20260505203450 | 13 | 296 | 1.6 | 3.2 | 0.00 | 0.05 | 0.05 | 77 | 1003.1 |
| 20260505202050 | 12 | 290 | 0.0 | 3.2 | 0.00 | 0.05 | 0.05 | 77 | 1002.9 |
| 20260505201350 | 12 | 0 | 0.0 | 0.0 | 0.00 | 0.05 | 0.05 | 78 | 1003.1 |
| 20260505200650 | 12 | 0 | 0.0 | 0.0 | 0.00 | 0.05 | 0.05 | 78 | 1003.1 |
| 20260505195950 | 12 | 314 | 0.0 | 1.6 | 0.00 | 0.10 | 0.05 | 77 | 1003.1 |
| 20260505195250 | 12 | 0 | 0.0 | 0.0 | 0.00 | 0.10 | 0.05 | 77 | 1002.9 |
| 20260505194550 | 12 | 279 | 0.0 | 3.2 | 0.00 | 0.10 | 0.05 | 78 | 1002.8 |
| 20260505193854 | 12 | 279 | 0.0 | 3.2 | 0.00 | 0.20 | 0.05 | 78 | 1002.7 |
| 20260505192902 | 12 | 287 | 0.0 | 1.6 | 0.00 | 0.20 | 0.05 | 77 | 1002.5 |
| 20260505192201 | 12 | 321 | 0.0 | 3.2 | 0.00 | 0.20 | 0.05 | 77 | 1002.4 |
| 20260505191501 | 12 | 329 | 0.0 | 3.2 | 0.00 | 0.20 | 0.05 | 77 | 1002.2 |
| 20260505190801 | 12 | 0 | 0.0 | 0.0 | 0.00 | 0.20 | 0.05 | 76 | 1001.9 |
| 20260505185401 | 12 | 312 | 0.0 | 3.2 | 0.00 | 0.20 | 0.05 | 75 | 1002.2 |